TimeEDT,TemperatureF,Dew PointF,Humidity,Sea Level PressureIn,VisibilityMPH,Wind Direction,Wind SpeedMPH,Gust SpeedMPH,PrecipitationIn,Events,Conditions,WindDirDegrees,DateUTC
12:53 AM,66.0,59.0,78,29.73,10.0,NNW,4.6,-,N/A,,Overcast,340,2013-08-14 04:53:00
1:53 AM,64.0,55.0,73,29.74,10.0,NNW,6.9,-,N/A,,Overcast,340,2013-08-14 05:53:00
2:53 AM,62.1,51.1,67,29.74,10.0,North,8.1,-,N/A,,Clear,10,2013-08-14 06:53:00
3:53 AM,61.0,48.9,64,29.73,10.0,NW,18.4,21.9,N/A,,Clear,320,2013-08-14 07:53:00
4:53 AM,60.1,48.0,64,29.74,10.0,NW,11.5,-,N/A,,Clear,320,2013-08-14 08:53:00
5:53 AM,59.0,48.9,69,29.77,10.0,Variable,4.6,-,N/A,,Clear,0,2013-08-14 09:53:00
6:53 AM,57.0,51.1,81,29.78,10.0,Calm,Calm,-,N/A,,Clear,0,2013-08-14 10:53:00
7:53 AM,61.0,50.0,67,29.78,10.0,WSW,4.6,-,N/A,,Clear,250,2013-08-14 11:53:00
8:53 AM,63.0,48.9,60,29.79,10.0,West,16.1,20.7,N/A,,Mostly Cloudy,280,2013-08-14 12:53:00
9:53 AM,64.9,48.9,56,29.80,10.0,NW,10.4,17.3,N/A,,Mostly Cloudy,310,2013-08-14 13:53:00
10:53 AM,66.0,48.9,54,29.80,10.0,NW,18.4,26.5,N/A,,Mostly Cloudy,310,2013-08-14 14:53:00
11:53 AM,66.0,48.9,54,29.82,10.0,NW,11.5,25.3,N/A,,Overcast,310,2013-08-14 15:53:00
12:53 PM,69.1,50.0,51,29.81,10.0,West,13.8,-,N/A,,Overcast,280,2013-08-14 16:53:00
1:53 PM,70.0,51.1,51,29.81,10.0,NW,15.0,20.7,N/A,,Mostly Cloudy,320,2013-08-14 17:53:00
2:53 PM,71.1,51.1,49,29.81,10.0,NW,9.2,-,N/A,,Mostly Cloudy,310,2013-08-14 18:53:00
3:53 PM,72.0,51.1,48,29.81,10.0,WNW,11.5,21.9,N/A,,Mostly Cloudy,290,2013-08-14 19:53:00
4:53 PM,73.0,51.1,46,29.83,10.0,NNW,10.4,19.6,N/A,,Scattered Clouds,330,2013-08-14 20:53:00
5:53 PM,71.1,51.1,49,29.84,10.0,WNW,20.7,26.5,N/A,,Clear,290,2013-08-14 21:53:00
6:53 PM,69.1,52.0,54,29.87,10.0,WNW,13.8,-,N/A,,Clear,300,2013-08-14 22:53:00
7:53 PM,66.0,53.1,63,29.90,10.0,NW,9.2,-,N/A,,Clear,310,2013-08-14 23:53:00
8:53 PM,63.0,53.1,70,29.93,10.0,WNW,3.5,-,N/A,,Clear,300,2013-08-15 00:53:00
9:53 PM,62.1,53.1,72,29.97,10.0,West,3.5,-,N/A,,Partly Cloudy,260,2013-08-15 01:53:00
10:53 PM,62.1,53.1,72,29.99,10.0,WNW,5.8,-,N/A,,Clear,300,2013-08-15 02:53:00
11:53 PM,60.1,52.0,75,30.00,10.0,West,8.1,-,N/A,,Clear,270,2013-08-15 03:53:00